GW4732 Weather Reports


time (UTC)temp
F
wind
direction
speed
knots
gust
knots
rain 1hr
in
rain 24hr
in
rain mn
in
humidity
%
barometer
mb
20260507204505 66 92 0.9 6.1 0.00 0.00 0.00 39 1009.6
20260507204002 66 86 2.6 7.8 0.00 0.00 0.00 36 1009.7
20260507203500 66 149 0.9 2.6 0.00 0.00 0.00 38 1009.7
20260507202956 66 185 3.5 6.1 0.00 0.00 0.00 40 1009.5
20260507202453 67 159 7.0 7.8 0.00 0.00 0.00 37 1009.7
20260507201949 66 149 4.3 7.0 0.00 0.00 0.00 38 1009.6
20260507201444 67 248 1.7 3.5 0.00 0.00 0.00 37 1009.6
20260507200941 66 284 1.7 2.6 0.00 0.00 0.00 38 1009.7
20260507200436 67 177 7.0 7.8 0.00 0.00 0.00 39 1009.8
20260507195933 67 160 2.6 2.6 0.00 0.00 0.00 41 1009.7
20260507195431 67 117 0.9 3.5 0.00 0.00 0.00 39 1010.1
20260507194928 66 154 3.5 6.1 0.00 0.00 0.00 40 1010.0
20260507194424 66 151 4.3 7.0 0.00 0.00 0.00 41 1009.9
20260507193920 66 141 5.2 7.8 0.00 0.00 0.00 41 1010.0
20260507193418 67 62 6.1 7.8 0.00 0.00 0.00 39 1010.3
20260507192914 66 15 1.7 2.6 0.00 0.00 0.00 38 1010.4
20260507192410 67 317 1.7 1.7 0.00 0.00 0.00 38 1010.4
20260507191907 66 188 1.7 2.6 0.00 0.00 0.00 39 1010.6
20260507191403 65 176 2.6 3.5 0.00 0.00 0.00 38 1010.7
20260507190859 65 130 1.7 3.5 0.00 0.00 0.00 37 1010.6
20260507190358 64 78 2.6 7.8 0.00 0.00 0.00 40 1010.8
20260507185856 64 48 3.5 7.8 0.00 0.00 0.00 41 1010.9
20260507185353 64 94 1.7 6.1 0.00 0.00 0.00 45 1011.0
20260507184850 65 66 3.5 7.0 0.00 0.00 0.00 38 1010.9
20260507184348 65 3 1.7 5.2 0.00 0.00 0.00 38 1010.9
20260507183844 65 16 4.3 5.2 0.00 0.00 0.00 39 1011.0
20260507183342 64 294 1.7 6.1 0.00 0.00 0.00 42 1011.1
20260507182839 64 356 4.3 7.0 0.00 0.00 0.00 44 1010.9
20260507182335 63 56 3.5 5.2 0.00 0.00 0.00 44 1011.2
20260507181831 63 37 0.9 3.5 0.00 0.00 0.00 46 1011.2
20260507181327 64 121 1.7 3.5 0.00 0.00 0.00 39 1011.4
20260507180825 63 98 0.0 1.7 0.00 0.00 0.00 44 1011.2
20260507180321 63 19 2.6 6.1 0.00 0.00 0.00 46 1011.4
20260507175817 63 321 3.5 6.1 0.00 0.00 0.00 40 1011.5
20260507175314 63 39 6.1 13.0 0.00 0.00 0.00 41 1011.5
20260507174811 62 56 1.7 5.2 0.00 0.00 0.00 42 1011.7
20260507174309 63 44 3.5 5.2 0.00 0.00 0.00 40 1011.9
20260507173806 61 102 1.7 3.5 0.00 0.00 0.00 40 1012.1
20260507173303 62 357 4.3 5.2 0.00 0.00 0.00 42 1012.0
20260507172759 61 28 7.0 11.3 0.00 0.00 0.00 41 1012.2
20260507172256 61 56 7.8 9.6 0.00 0.00 0.00 41 1012.2
20260507171752 63 14 5.2 13.9 0.00 0.00 0.00 43 1012.2
20260507171249 62 94 0.0 2.6 0.00 0.00 0.00 42 1012.3
20260507170746 61 263 0.0 2.6 0.00 0.00 0.00 47 1012.3
20260507170243 62 52 5.2 7.0 0.00 0.00 0.00 45 1012.6
20260507165738 60 103 0.9 5.2 0.00 0.00 0.00 46 1012.5
20260507165235 60 34 1.7 7.8 0.00 0.00 0.00 40 1012.6
20260507164731 61 55 4.3 7.0 0.00 0.00 0.00 44 1012.7
20260507164228 61 35 7.8 8.7 0.00 0.00 0.00 41 1012.9
20260507163725 60 19 5.2 8.7 0.00 0.00 0.00 44 1012.8
20260507163223 60 298 3.5 5.2 0.00 0.00 0.00 45 1012.8
20260507162719 61 13 2.6 8.7 0.00 0.00 0.00 44 1012.9
20260507162215 61 351 3.5 8.7 0.00 0.00 0.00 42 1012.9
20260507161712 61 27 7.8 9.6 0.00 0.00 0.00 40 1013.2
20260507161208 60 63 3.5 7.0 0.00 0.00 0.00 46 1013.2
20260507160704 60 346 0.9 7.8 0.00 0.00 0.00 44 1013.3
20260507160201 60 73 5.2 7.8 0.00 0.00 0.00 42 1013.2
20260507155656 60 44 5.2 7.0 0.00 0.00 0.00 45 1013.4
20260507155153 60 337 5.2 6.1 0.00 0.00 0.00 44 1013.0
20260507154650 59 346 7.8 9.6 0.00 0.00 0.00 49 1013.4
20260507154148 59 70 5.2 7.0 0.00 0.00 0.00 42 1013.4
20260507153644 58 39 5.2 7.8 0.00 0.00 0.00 41 1013.4
20260507153140 58 44 7.0 8.7 0.00 0.00 0.00 47 1013.3
20260507152637 58 45 9.6 13.9 0.00 0.00 0.00 47 1013.6
20260507152132 58 19 4.3 7.0 0.00 0.00 0.00 49 1013.4
20260507151629 58 36 7.0 8.7 0.00 0.00 0.00 43 1013.5
20260507151126 59 59 7.8 8.7 0.00 0.00 0.00 45 1013.7
20260507150623 58 55 7.0 8.7 0.00 0.00 0.00 50 1013.8
20260507150120 58 27 4.3 7.0 0.00 0.00 0.00 52 1014.0
20260507145615 58 14 4.3 11.3 0.00 0.00 0.00 48 1014.0
20260507145113 58 50 3.5 7.8 0.00 0.00 0.00 46 1014.3
20260507144613 58 20 4.3 7.8 0.00 0.00 0.00 51 1014.3
20260507144112 58 338 3.5 5.2 0.00 0.00 0.00 51 1014.3
20260507143608 59 69 7.0 7.8 0.00 0.00 0.00 49 1014.4
20260507143106 58 50 5.2 7.8 0.00 0.00 0.00 51 1014.4
20260507142601 57 324 6.1 7.8 0.00 0.00 0.00 51 1014.3
20260507142058 56 21 6.1 7.0 0.00 0.00 0.00 55 1014.7
20260507141554 56 31 2.6 6.1 0.00 0.00 0.00 53 1014.4
20260507141051 56 26 5.2 7.8 0.00 0.00 0.00 51 1014.5
20260507140547 56 346 4.3 8.7 0.00 0.00 0.00 52 1014.8
20260507140045 56 14 4.3 7.0 0.00 0.00 0.00 52 1014.8
20260507135542 56 7 5.2 7.0 0.00 0.00 0.00 54 1014.7
20260507135039 55 2 5.2 7.0 0.00 0.00 0.00 53 1014.9
20260507134536 55 44 10.4 12.2 0.00 0.00 0.00 52 1014.9
20260507134031 55 35 4.3 6.1 0.00 0.00 0.00 56 1014.9
20260507133528 55 78 2.6 5.2 0.00 0.00 0.00 54 1015.0
20260507133026 55 26 3.5 6.1 0.00 0.00 0.00 54 1015.1
20260507132522 54 359 5.2 7.0 0.00 0.00 0.00 57 1015.1
20260507132018 54 13 3.5 6.1 0.00 0.00 0.00 56 1015.2
20260507131516 53 10 5.2 7.0 0.00 0.00 0.00 56 1014.9
20260507131013 53 38 5.2 6.1 0.00 0.00 0.00 55 1015.0
20260507130509 54 31 5.2 7.8 0.00 0.00 0.00 54 1015.1
20260507130008 54 32 4.3 6.1 0.00 0.00 0.00 56 1015.0
20260507125506 54 29 3.5 6.1 0.00 0.00 0.00 58 1015.1
20260507125003 54 41 5.2 6.1 0.00 0.00 0.00 57 1015.0
20260507124459 53 28 3.5 7.8 0.00 0.00 0.00 58 1015.1
20260507123957 53 31 5.2 7.8 0.00 0.00 0.00 57 1014.9
20260507123455 53 9 5.2 7.8 0.00 0.00 0.00 59 1014.9
20260507122951 53 14 4.3 6.1 0.00 0.00 0.00 59 1015.1
20260507122446 53 36 6.1 7.0 0.00 0.00 0.00 58 1014.9
20260507121943 53 19 2.6 3.5 0.00 0.00 0.00 62 1014.9
20260507121438 53 42 3.5 6.1 0.00 0.00 0.00 61 1015.1
20260507120935 53 20 2.6 2.6 0.00 0.00 0.00 63 1014.8
20260507120431 53 33 1.7 3.5 0.00 0.00 0.00 63 1014.9
20260507115928 53 20 2.6 3.5 0.00 0.00 0.00 65 1014.9
20260507115424 52 350 2.6 3.5 0.00 0.00 0.00 65 1014.9
20260507114920 52 42 3.5 3.5 0.00 0.00 0.00 64 1014.9
20260507114417 52 30 1.7 3.5 0.00 0.00 0.00 65 1015.0
20260507113914 52 10 1.7 3.5 0.00 0.00 0.00 66 1014.7
20260507113411 52 12 3.5 3.5 0.00 0.00 0.00 63 1014.6
20260507112908 52 12 2.6 2.6 0.00 0.00 0.00 65 1014.6
20260507112406 52 12 1.7 2.6 0.00 0.00 0.00 66 1014.6
20260507111904 52 12 1.7 2.6 0.00 0.00 0.00 66 1014.8
20260507111400 52 12 0.9 1.7 0.00 0.00 0.00 65 1014.8
20260507110856 52 12 0.9 1.7 0.00 0.00 0.00 66 1014.9
20260507110352 52 12 0.9 1.7 0.00 0.00 0.00 64 1014.6
20260507105849 52 12 1.7 1.7 0.00 0.00 0.00 66 1014.6
20260507105345 52 12 0.9 0.9 0.00 0.00 0.00 67 1014.5
20260507104842 52 12 0.9 1.7 0.00 0.00 0.00 67 1014.5
20260507104339 52 12 0.9 1.7 0.00 0.00 0.00 67 1014.5
20260507103835 52 13 1.7 2.6 0.00 0.00 0.00 64 1014.3
20260507103332 52 30 1.7 2.6 0.00 0.00 0.00 63 1014.1
20260507102828 52 30 0.9 2.6 0.00 0.00 0.00 64 1014.0
20260507102325 52 51 2.6 3.5 0.00 0.00 0.00 65 1014.0
20260507101822 52 51 0.0 3.5 0.00 0.00 0.00 66 1014.1
20260507101321 52 36 0.0 0.9 0.00 0.00 0.00 70 1014.1
20260507100819 52 36 0.9 0.9 0.00 0.00 0.00 71 1013.9
20260507100317 52 36 0.9 1.7 0.00 0.00 0.00 70 1014.0
20260507095815 52 36 1.7 1.7 0.00 0.00 0.00 72 1013.9
20260507095311 52 36 1.7 1.7 0.00 0.00 0.00 72 1013.7
20260507094808 52 40 1.7 3.5 0.00 0.00 0.00 71 1013.7
20260507094305 52 33 0.9 1.7 0.00 0.00 0.00 75 1013.7
20260507093801 52 33 0.9 1.7 0.00 0.00 0.00 75 1013.7
20260507093300 52 32 1.7 2.6 0.00 0.00 0.00 76 1013.5
20260507092758 53 30 2.6 3.5 0.00 0.00 0.00 75 1013.6
20260507092253 53 47 3.5 3.5 0.00 0.00 0.00 75 1013.7
20260507091750 53 40 2.6 3.5 0.00 0.00 0.00 77 1013.7
20260507091247 53 8 0.9 0.9 0.00 0.00 0.00 79 1013.9
20260507090747 53 8 2.6 2.6 0.00 0.00 0.00 77 1013.8
20260507090244 53 357 3.5 3.5 0.00 0.00 0.00 77 1013.7
20260507085741 53 357 1.7 3.5 0.00 0.00 0.00 78 1013.8
20260507085238 53 18 2.6 3.5 0.00 0.00 0.00 76 1013.7
20260507084735 53 15 1.7 3.5 0.00 0.00 0.00 77 1013.6
20260507084231 53 16 2.6 3.5 0.00 0.00 0.00 77 1013.7
20260507083729 53 24 1.7 1.7 0.00 0.00 0.00 77 1013.7
20260507083226 53 25 0.9 2.6 0.00 0.00 0.00 77 1013.6
20260507082722 53 20 2.6 3.5 0.00 0.00 0.00 76 1013.6
20260507082218 53 6 1.7 2.6 0.00 0.00 0.00 77 1013.5
20260507081715 53 4 0.9 1.7 0.00 0.00 0.00 77 1013.4
20260507081211 54 5 0.9 2.6 0.00 0.00 0.00 77 1013.3
20260507080707 54 348 1.7 2.6 0.00 0.00 0.00 77 1013.3
20260507080204 54 13 1.7 2.6 0.00 0.00 0.00 76 1013.1
20260507075659 54 354 1.7 3.5 0.00 0.00 0.00 77 1013.4
20260507075155 54 22 2.6 5.2 0.00 0.00 0.00 75 1013.1
20260507074652 54 23 3.5 5.2 0.00 0.00 0.00 76 1013.1
20260507074150 54 11 3.5 3.5 0.00 0.00 0.00 76 1012.9
20260507073647 54 15 2.6 5.2 0.00 0.00 0.00 77 1013.0
20260507073143 54 22 3.5 7.8 0.00 0.00 0.00 76 1012.8
20260507072641 54 349 2.6 5.2 0.00 0.00 0.00 77 1012.9
20260507072138 54 9 4.3 6.1 0.00 0.00 0.00 77 1012.9
20260507071635 54 22 3.5 6.1 0.00 0.00 0.00 77 1012.8
20260507071131 54 18 2.6 6.1 0.00 0.00 0.00 78 1012.7
20260507070629 54 4 2.6 5.2 0.00 0.00 0.00 79 1013.1
20260507070126 54 28 3.5 3.5 0.00 0.00 0.00 80 1013.0
20260507065622 54 359 2.6 2.6 0.00 0.00 0.00 80 1013.1
20260507065119 54 359 0.9 0.9 0.00 0.00 0.00 80 1013.2
20260507064617 54 359 0.9 0.9 0.00 0.00 0.00 79 1013.2
20260507064115 54 359 1.7 1.7 0.00 0.00 0.00 78 1013.5
20260507063612 54 358 1.7 2.6 0.00 0.00 0.00 78 1013.3
20260507063109 54 357 0.9 1.7 0.00 0.00 0.00 79 1013.3
20260507062606 55 352 1.7 3.5 0.00 0.00 0.00 78 1013.2
20260507062103 55 4 1.7 2.6 0.00 0.00 0.00 79 1013.4
20260507061601 55 338 1.7 2.6 0.00 0.00 0.00 78 1013.6
20260507061059 55 338 1.7 5.2 0.00 0.00 0.00 78 1013.5
20260507060557 55 340 1.7 2.6 0.00 0.00 0.00 78 1013.6
20260507060053 55 338 1.7 3.5 0.00 0.00 0.00 79 1013.7
20260507055548 55 10 3.5 5.2 0.00 0.00 0.00 78 1013.6
20260507055045 55 0 0.9 2.6 0.00 0.00 0.00 79 1013.6
20260507054541 55 354 1.7 2.6 0.00 0.00 0.00 80 1013.5
20260507054038 55 15 2.6 5.2 0.00 0.00 0.00 79 1013.3
20260507053536 55 3 3.5 3.5 0.00 0.00 0.00 79 1013.4
20260507053034 55 353 4.3 6.1 0.00 0.00 0.00 79 1013.1
20260507052531 55 338 2.6 6.1 0.00 0.00 0.00 79 1013.0
20260507052028 55 14 2.6 6.1 0.00 0.00 0.00 79 1013.2
20260507051526 55 17 3.5 3.5 0.00 0.00 0.00 80 1013.3
20260507051023 55 355 2.6 3.5 0.00 0.00 0.00 80 1013.3
20260507050519 55 22 2.6 5.2 0.00 0.00 0.00 80 1013.3
20260507050016 55 16 3.5 5.2 0.00 0.00 0.00 80 1013.2
20260507045512 55 12 2.6 6.1 0.00 0.00 0.00 80 1013.2
20260507045010 55 357 3.5 7.0 0.00 0.00 0.00 80 1013.3
20260507044506 55 21 3.5 7.0 0.00 0.00 0.00 81 1013.3
20260507044003 56 7 3.5 6.1 0.00 0.00 0.00 81 1013.2
20260507043459 56 26 7.8 11.3 0.00 0.00 0.00 80 1012.9
20260507042955 56 33 5.2 9.6 0.00 0.00 0.00 80 1012.6
20260507042452 56 23 5.2 7.8 0.00 0.00 0.00 81 1012.8
20260507041948 56 23 6.1 7.0 0.00 0.00 0.00 82 1013.0
20260507041445 56 8 5.2 7.0 0.00 0.00 0.00 82 1013.1
20260507040942 56 28 4.3 8.7 0.00 0.00 0.00 83 1013.2
20260507040437 56 301 7.8 8.7 0.00 0.00 0.00 83 1013.2
20260507035934 56 11 7.8 8.7 0.00 0.11 0.11 83 1013.2
20260507035430 56 357 4.3 6.1 0.00 0.11 0.11 83 1013.2
20260507034927 56 6 1.7 3.5 0.00 0.11 0.11 84 1013.1
20260507034424 56 17 2.6 5.2 0.00 0.11 0.11 84 1013.1
20260507033922 56 342 5.2 7.8 0.00 0.11 0.11 83 1013.2
20260507033420 56 339 7.0 7.8 0.00 0.11 0.11 84 1013.0
20260507032916 56 13 5.2 8.7 0.00 0.11 0.11 84 1013.1
20260507032414 56 22 4.3 7.8 0.00 0.11 0.11 84 1013.1
20260507031909 56 20 7.0 7.8 0.00 0.11 0.11 84 1013.3
20260507031406 56 27 3.5 6.1 0.00 0.11 0.11 84 1013.0
20260507030903 57 343 5.2 6.1 0.00 0.11 0.11 83 1013.2
20260507030400 57 19 3.5 8.7 0.00 0.11 0.11 83 1013.2
20260507025857 57 4 5.2 9.6 0.00 0.11 0.11 82 1013.0
20260507025354 57 31 4.3 9.6 0.00 0.11 0.11 82 1013.1
20260507024852 57 29 3.5 6.1 0.00 0.11 0.11 82 1012.8
20260507024349 57 21 3.5 7.0 0.00 0.11 0.11 82 1012.8
20260507023845 58 11 4.3 7.0 0.00 0.11 0.11 82 1012.7
20260507023342 58 22 6.1 7.8 0.00 0.11 0.11 82 1012.7
20260507022839 58 357 5.2 9.6 0.00 0.11 0.11 81 1012.9
20260507022335 58 7 5.2 9.6 0.00 0.11 0.11 81 1012.7
20260507021831 58 6 7.0 8.7 0.00 0.11 0.11 81 1012.4
20260507021327 58 17 3.5 7.8 0.00 0.11 0.11 81 1012.5
20260507020825 59 331 4.3 7.0 0.00 0.11 0.11 80 1012.7
20260507020321 59 25 3.5 6.1 0.00 0.11 0.11 81 1012.5
20260507015819 59 26 3.5 6.1 0.00 0.11 0.11 81 1012.4
20260507015316 59 24 3.5 7.0 0.00 0.11 0.11 81 1012.2
20260507014813 59 22 2.6 3.5 0.00 0.11 0.11 82 1012.3
20260507014310 60 26 3.5 5.2 0.00 0.11 0.11 81 1012.3
20260507013806 60 46 4.3 7.0 0.00 0.11 0.11 81 1012.4
20260507013303 60 27 2.6 5.2 0.00 0.11 0.11 82 1012.3
20260507012801 60 22 3.5 5.2 0.00 0.11 0.11 81 1012.4
20260507012256 60 22 4.3 5.2 0.00 0.11 0.11 79 1012.1
20260507011754 60 53 2.6 3.5 0.00 0.11 0.11 79 1012.0
20260507011250 60 38 4.3 7.8 0.00 0.11 0.11 80 1012.1
20260507010750 61 25 3.5 3.5 0.00 0.11 0.11 81 1011.8
20260507010246 61 30 3.5 5.2 0.00 0.11 0.11 79 1011.7
20260507005744 61 7 5.2 9.6 0.00 0.11 0.11 79 1012.1
20260507005240 61 22 3.5 7.0 0.00 0.11 0.11 79 1012.0
20260507004736 61 339 4.3 7.0 0.00 0.11 0.11 80 1012.4
20260507004235 61 19 3.5 7.0 0.00 0.11 0.11 80 1012.5
20260507003730 61 19 3.5 6.1 0.00 0.11 0.11 81 1012.3
20260507003226 62 11 3.5 6.1 0.00 0.11 0.11 80 1012.1
20260507002722 62 32 5.2 7.0 0.00 0.11 0.11 81 1012.0
20260507002218 62 33 3.5 5.2 0.00 0.11 0.11 82 1012.0
20260507001715 62 359 3.5 7.0 0.00 0.11 0.11 82 1012.2
20260507001212 62 35 3.5 7.0 0.00 0.11 0.11 84 1011.9
20260507000708 62 3 3.5 7.0 0.00 0.11 0.11 84 1011.9
20260507000205 63 23 2.6 5.2 0.00 0.11 0.11 88 1011.8
20260506235702 63 8 2.6 6.1 0.00 0.11 0.11 87 1011.5
20260506235157 63 20 3.5 6.1 0.00 0.11 0.11 87 1011.3
20260506234654 64 44 4.3 6.1 0.00 0.11 0.11 86 1011.4
20260506234151 64 32 5.2 6.1 0.00 0.11 0.11 87 1011.5
20260506233648 64 5 3.5 5.2 0.00 0.11 0.11 87 1011.4
20260506233145 64 26 2.6 2.6 0.00 0.11 0.11 87 1010.8
20260506232641 64 26 4.3 6.1 0.00 0.11 0.11 86 1011.0
20260506232137 64 3 1.7 5.2 0.00 0.11 0.11 86 1010.7
20260506231634 65 26 4.3 6.1 0.00 0.11 0.11 86 1010.8
20260506231133 65 20 2.6 2.6 0.00 0.11 0.11 86 1010.4
20260506230629 65 10 4.3 6.1 0.00 0.11 0.11 85 1010.7
20260506230126 65 11 2.6 3.5 0.00 0.11 0.11 85 1010.6
20260506225622 65 324 2.6 7.8 0.00 0.11 0.11 83 1010.3
20260506225119 65 354 0.9 5.2 0.00 0.11 0.11 84 1010.4
20260506224616 66 1 2.6 5.2 0.00 0.11 0.11 85 1010.1
20260506224112 66 354 0.9 2.6 0.00 0.11 0.11 88 1010.3
20260506223608 66 12 3.5 6.1 0.00 0.11 0.11 88 1010.6
20260506223105 66 9 3.5 7.8 0.00 0.11 0.11 89 1010.6
20260506222602 67 26 5.2 7.0 0.00 0.11 0.11 88 1010.3
20260506222058 67 16 5.2 7.0 0.00 0.11 0.11 87 1010.1
20260506221556 67 16 5.2 7.0 0.00 0.11 0.11 89 1010.0
20260506221054 67 14 4.3 6.1 0.00 0.11 0.11 90 1010.2
20260506220549 67 24 5.2 8.7 0.00 0.11 0.11 89 1009.8
20260506220045 68 267 0.9 1.7 0.00 0.11 0.11 85 1009.9
20260506215542 69 266 0.9 2.6 0.00 0.11 0.11 84 1009.7
20260506215038 69 216 2.6 2.6 0.00 0.11 0.11 83 1009.5
20260506214535 69 216 1.7 2.6 0.00 0.11 0.11 82 1009.6
20260506214032 69 216 1.7 1.7 0.00 0.11 0.11 83 1009.7
20260506213530 69 216 0.0 0.0 0.00 0.11 0.11 85 1009.6
20260506213027 68 216 0.0 0.0 0.00 0.11 0.11 85 1009.8
20260506212524 68 216 0.0 0.9 0.00 0.11 0.11 84 1009.6
20260506212019 68 216 0.9 0.9 0.00 0.11 0.11 86 1009.7
20260506211515 68 216 0.0 0.0 0.00 0.11 0.11 85 1009.5
20260506211013 68 211 3.5 5.2 0.00 0.11 0.11 85 1009.3
20260506210508 68 213 1.7 2.6 0.00 0.11 0.11 85 1009.1
20260506210005 69 186 3.5 3.5 0.00 0.11 0.11 86 1008.9
20260506205502 68 188 3.5 3.5 0.00 0.11 0.11 87 1009.0
20260506204957 68 190 3.5 3.5 0.00 0.11 0.11 86 1009.1